Location: *
(58.7167°N, 26.1833°E)
Time: 11:01:29
(UTC+00:00)

Cosmos 407 Rocket - Pass Details

Date: 25 August 2019
Orbit: 744 x 786 km, 74.0° (Epoch: 15 September)

Event Time Altitude Azimuth Distance (km) Brightness Sun altitude
Rises 23:06:15 0° 326° (NNW) 3,251 7.4 -20.0°
Reaches altitude 10° 23:08:51 10° 317° (NW) 2,313 6.4 -19.9°
Maximum altitude 23:13:25 31° 256° (WSW) 1,305 4.4 -19.8°
Enters shadow 23:14:14 30° 239° (WSW) 1,346 4.4 -19.7°
